| time (UTC) | temp F | wind direction | speed MPH | gust MPH | rain 1hr in | rain 24hr in | rain mn in | humidity % | barometer mb |
| 20260507130514 | 57 | 114 | 0.0 | 5.0 | 0.02 | 0.20 | 0.19 | 85 | 1011.7 |
| 20260507130014 | 57 | 158 | 0.0 | 1.0 | 0.02 | 0.20 | 0.19 | 85 | 1011.5 |
| 20260507125512 | 57 | 158 | 0.0 | 3.0 | 0.02 | 0.20 | 0.19 | 85 | 1011.6 |
| 20260507125013 | 57 | 123 | 0.0 | 3.0 | 0.02 | 0.20 | 0.19 | 84 | 1011.2 |
| 20260507124517 | 57 | 115 | 0.0 | 1.0 | 0.02 | 0.20 | 0.19 | 84 | 1011.3 |
| 20260507124011 | 57 | 115 | 0.0 | 4.0 | 0.02 | 0.20 | 0.19 | 84 | 1011.3 |
| 20260507123512 | 57 | 115 | 0.0 | 3.0 | 0.03 | 0.20 | 0.19 | 84 | 1011.4 |
| 20260507123010 | 57 | 334 | 0.0 | 2.0 | 0.03 | 0.20 | 0.19 | 84 | 1011.5 |
| 20260507122511 | 57 | 325 | 0.0 | 3.0 | 0.03 | 0.20 | 0.19 | 84 | 1011.5 |
| 20260507122010 | 57 | 329 | 1.0 | 3.0 | 0.02 | 0.19 | 0.18 | 84 | 1011.4 |
| 20260507121509 | 58 | 47 | 0.0 | 2.0 | 0.03 | 0.19 | 0.18 | 83 | 1011.3 |
| 20260507121009 | 58 | 47 | 0.0 | 3.0 | 0.02 | 0.18 | 0.17 | 83 | 1011.4 |
| 20260507120508 | 58 | 47 | 0.0 | 4.0 | 0.04 | 0.18 | 0.17 | 83 | 1011.5 |
| 20260507120025 | 58 | 48 | 0.0 | 4.0 | 0.04 | 0.18 | 0.17 | 83 | 1011.6 |
| 20260507115507 | 58 | 127 | 0.0 | 3.0 | 0.04 | 0.18 | 0.17 | 82 | 1011.4 |
| 20260507115008 | 58 | 107 | 0.0 | 3.0 | 0.04 | 0.18 | 0.17 | 82 | 1011.1 |
| 20260507114506 | 58 | 57 | 0.0 | 5.0 | 0.04 | 0.18 | 0.17 | 82 | 1011.2 |
| 20260507114006 | 58 | 58 | 0.0 | 5.0 | 0.05 | 0.18 | 0.17 | 81 | 1011.2 |
| 20260507113506 | 58 | 139 | 0.0 | 3.0 | 0.04 | 0.17 | 0.16 | 81 | 1011.6 |
| 20260507113024 | 58 | 139 | 0.0 | 3.0 | 0.04 | 0.17 | 0.16 | 81 | 1011.5 |
| 20260507112510 | 58 | 119 | 0.0 | 2.0 | 0.05 | 0.17 | 0.16 | 81 | 1011.5 |
| 20260507112005 | 59 | 125 | 0.0 | 4.0 | 0.05 | 0.17 | 0.16 | 81 | 1011.3 |
| 20260507111503 | 59 | 93 | 0.0 | 4.0 | 0.05 | 0.16 | 0.15 | 81 | 1011.3 |
| 20260507111001 | 59 | 88 | 1.0 | 4.0 | 0.05 | 0.16 | 0.15 | 81 | 1011.3 |
| 20260507110500 | 60 | 132 | 0.0 | 7.0 | 0.03 | 0.14 | 0.13 | 81 | 1011.3 |
| 20260507110106 | 60 | 76 | 1.0 | 7.0 | 0.03 | 0.14 | 0.13 | 81 | 1011.2 |
| 20260507105559 | 60 | 123 | 0.0 | 2.0 | 0.03 | 0.14 | 0.13 | 81 | 1011.1 |
| 20260507105057 | 60 | 102 | 0.0 | 1.0 | 0.04 | 0.14 | 0.13 | 81 | 1011.0 |
| 20260507104559 | 60 | 102 | 0.0 | 1.0 | 0.05 | 0.14 | 0.13 | 81 | 1010.9 |
| 20260507104100 | 60 | 102 | 0.0 | 2.0 | 0.04 | 0.13 | 0.12 | 80 | 1010.7 |
| 20260507103556 | 60 | 102 | 0.0 | 2.0 | 0.05 | 0.13 | 0.12 | 80 | 1010.6 |
| 20260507103055 | 61 | 101 | 0.0 | 1.0 | 0.07 | 0.13 | 0.12 | 80 | 1010.7 |
| 20260507102554 | 61 | 328 | 0.0 | 0.0 | 0.06 | 0.12 | 0.11 | 80 | 1010.6 |
| 20260507102054 | 61 | 329 | 0.0 | 1.0 | 0.07 | 0.12 | 0.11 | 80 | 1010.6 |
| 20260507101601 | 61 | 327 | 0.0 | 2.0 | 0.09 | 0.11 | 0.10 | 80 | 1010.8 |
| 20260507101054 | 61 | 326 | 0.0 | 4.0 | 0.09 | 0.11 | 0.10 | 80 | 1010.7 |
| 20260507100551 | 62 | 87 | 0.0 | 2.0 | 0.09 | 0.11 | 0.10 | 79 | 1010.6 |
| 20260507100051 | 62 | 360 | 0.0 | 2.0 | 0.09 | 0.11 | 0.10 | 79 | 1010.6 |
| 20260507095549 | 62 | 81 | 0.0 | 2.0 | 0.09 | 0.11 | 0.10 | 79 | 1010.7 |
| 20260507095051 | 63 | 85 | 0.0 | 3.0 | 0.08 | 0.10 | 0.09 | 79 | 1010.6 |
| 20260507094554 | 63 | 89 | 0.0 | 4.0 | 0.08 | 0.09 | 0.08 | 79 | 1010.5 |
| 20260507094046 | 64 | 78 | 0.0 | 2.0 | 0.08 | 0.09 | 0.08 | 80 | 1010.5 |
| 20260507093545 | 64 | 5 | 0.0 | 3.0 | 0.07 | 0.08 | 0.07 | 80 | 1010.4 |
| 20260507093043 | 65 | 5 | 1.0 | 10.0 | 0.05 | 0.06 | 0.05 | 80 | 1010.3 |
| 20260507092542 | 66 | 69 | 2.0 | 10.0 | 0.05 | 0.06 | 0.05 | 81 | 1010.3 |
| 20260507092044 | 66 | 106 | 1.0 | 7.0 | 0.03 | 0.04 | 0.03 | 82 | 1010.2 |
| 20260507091544 | 66 | 195 | 0.0 | 0.0 | 0.01 | 0.02 | 0.01 | 81 | 1009.8 |
| 20260507091040 | 66 | 195 | 0.0 | 0.0 | 0.01 | 0.02 | 0.01 | 81 | 1009.7 |
| 20260507090541 | 66 | 195 | 0.0 | 0.0 | 0.01 | 0.02 | 0.01 | 81 | 1009.7 |
| 20260507090044 | 66 | 195 | 0.0 | 0.0 | 0.01 | 0.02 | 0.01 | 81 | 1009.5 |
| 20260507085641 | 66 | 195 | 0.0 | 0.0 | 0.01 | 0.02 | 0.01 | 81 | 1009.4 |
| 20260507085041 | 67 | 195 | 0.0 | 0.0 | 0.01 | 0.02 | 0.01 | 81 | 1009.5 |
| 20260507084539 | 67 | 195 | 0.0 | 0.0 | 0.00 | 0.01 | 0.00 | 81 | 1009.3 |
| 20260507084040 | 67 | 195 | 0.0 | 3.0 | 0.00 | 0.01 | 0.00 | 80 | 1009.3 |
| 20260507083538 | 67 | 195 | 0.0 | 3.0 | 0.00 | 0.01 | 0.00 | 80 | 1009.4 |
| 20260507083038 | 67 | 195 | 0.0 | 3.0 | 0.00 | 0.01 | 0.00 | 80 | 1009.2 |
| 20260507082538 | 67 | 195 | 0.0 | 3.0 | 0.00 | 0.01 | 0.00 | 80 | 1009.3 |
| 20260507082038 | 67 | 195 | 0.0 | 0.0 | 0.00 | 0.01 | 0.00 | 80 | 1009.3 |
| 20260507081544 | 67 | 195 | 0.0 | 0.0 | 0.00 | 0.01 | 0.00 | 80 | 1009.5 |
| 20260507081037 | 67 | 195 | 0.0 | 0.0 | 0.00 | 0.01 | 0.00 | 80 | 1009.6 |
| 20260507080539 | 67 | 195 | 0.0 | 0.0 | 0.00 | 0.01 | 0.00 | 80 | 1009.1 |
| 20260507080038 | 67 | 195 | 0.0 | 0.0 | 0.00 | 0.01 | 0.00 | 80 | 1009.1 |
| 20260507075535 | 67 | 195 | 0.0 | 0.0 | 0.00 | 0.01 | 0.00 | 80 | 1009.2 |
| 20260507075035 | 67 | 195 | 0.0 | 6.0 | 0.00 | 0.01 | 0.00 | 80 | 1009.2 |
| 20260507074535 | 67 | 195 | 0.0 | 6.0 | 0.00 | 0.01 | 0.00 | 80 | 1009.3 |
| 20260507074034 | 67 | 182 | 2.0 | 6.0 | 0.00 | 0.01 | 0.00 | 80 | 1009.4 |
| 20260507073534 | 67 | 203 | 0.0 | 3.0 | 0.00 | 0.01 | 0.00 | 79 | 1009.6 |
| 20260507073034 | 67 | 203 | 0.0 | 5.0 | 0.00 | 0.01 | 0.00 | 79 | 1009.5 |
| 20260507072534 | 67 | 234 | 0.0 | 5.0 | 0.00 | 0.01 | 0.00 | 79 | 1009.6 |
| 20260507072033 | 67 | 202 | 0.0 | 9.0 | 0.00 | 0.01 | 0.00 | 79 | 1009.4 |
| 20260507071536 | 67 | 196 | 1.0 | 9.0 | 0.00 | 0.01 | 0.00 | 79 | 1009.5 |
| 20260507071033 | 67 | 193 | 1.0 | 8.0 | 0.00 | 0.01 | 0.00 | 79 | 1009.5 |
| 20260507070535 | 67 | 181 | 2.0 | 8.0 | 0.00 | 0.01 | 0.00 | 79 | 1009.3 |
| 20260507070036 | 67 | 199 | 2.0 | 8.0 | 0.00 | 0.01 | 0.00 | 78 | 1009.2 |
| 20260507065530 | 67 | 158 | 1.0 | 7.0 | 0.00 | 0.01 | 0.00 | 78 | 1009.2 |
| 20260507065035 | 68 | 200 | 2.0 | 7.0 | 0.00 | 0.01 | 0.00 | 78 | 1009.2 |
| 20260507064540 | 68 | 188 | 2.0 | 5.0 | 0.00 | 0.01 | 0.00 | 78 | 1009.2 |
| 20260507064030 | 68 | 209 | 1.0 | 6.0 | 0.00 | 0.01 | 0.00 | 78 | 1009.2 |
| 20260507063528 | 68 | 206 | 1.0 | 5.0 | 0.00 | 0.01 | 0.00 | 77 | 1009.1 |
| 20260507063028 | 68 | 196 | 1.0 | 6.0 | 0.00 | 0.01 | 0.00 | 77 | 1009.0 |
| 20260507062531 | 69 | 195 | 1.0 | 6.0 | 0.00 | 0.01 | 0.00 | 77 | 1008.9 |
| 20260507062027 | 69 | 5 | 0.0 | 6.0 | 0.00 | 0.01 | 0.00 | 77 | 1008.8 |
| 20260507061532 | 69 | 214 | 1.0 | 9.0 | 0.00 | 0.01 | 0.00 | 76 | 1009.1 |
| 20260507061024 | 69 | 205 | 0.0 | 10.0 | 0.00 | 0.01 | 0.00 | 76 | 1009.2 |
| 20260507060523 | 70 | 190 | 2.0 | 10.0 | 0.00 | 0.01 | 0.00 | 75 | 1009.4 |
| 20260507060022 | 70 | 202 | 2.0 | 10.0 | 0.00 | 0.01 | 0.00 | 74 | 1009.7 |
| 20260507055522 | 70 | 212 | 1.0 | 12.0 | 0.00 | 0.01 | 0.00 | 74 | 1009.8 |
| 20260507055021 | 70 | 215 | 3.0 | 12.0 | 0.00 | 0.01 | 0.00 | 73 | 1009.8 |
| 20260507054522 | 70 | 224 | 7.0 | 11.0 | 0.00 | 0.01 | 0.00 | 73 | 1009.8 |
| 20260507054022 | 70 | 192 | 4.0 | 10.0 | 0.00 | 0.01 | 0.00 | 73 | 1010.1 |
| 20260507053520 | 70 | 226 | 4.0 | 10.0 | 0.00 | 0.01 | 0.00 | 73 | 1010.1 |
| 20260507053023 | 70 | 205 | 4.0 | 11.0 | 0.00 | 0.01 | 0.00 | 73 | 1010.3 |
| 20260507052518 | 70 | 198 | 2.0 | 7.0 | 0.00 | 0.01 | 0.00 | 73 | 1010.5 |
| 20260507052022 | 70 | 182 | 2.0 | 7.0 | 0.00 | 0.01 | 0.00 | 73 | 1010.7 |
| 20260507051519 | 70 | 221 | 0.0 | 6.0 | 0.00 | 0.01 | 0.00 | 73 | 1010.6 |
| 20260507051022 | 70 | 235 | 0.0 | 6.0 | 0.00 | 0.01 | 0.00 | 73 | 1010.6 |
| 20260507050518 | 70 | 184 | 2.0 | 9.0 | 0.00 | 0.01 | 0.00 | 73 | 1010.6 |
| 20260507050021 | 70 | 179 | 3.0 | 9.0 | 0.00 | 0.01 | 0.00 | 72 | 1010.7 |
| 20260507045517 | 70 | 193 | 2.0 | 6.0 | 0.00 | 0.01 | 0.00 | 72 | 1010.7 |
| 20260507045016 | 70 | 193 | 2.0 | 5.0 | 0.00 | 0.01 | 0.00 | 72 | 1010.8 |
| 20260507044516 | 70 | 190 | 0.0 | 4.0 | 0.00 | 0.01 | 0.00 | 72 | 1010.8 |
| 20260507044016 | 70 | 176 | 0.0 | 4.0 | 0.00 | 0.01 | 0.00 | 72 | 1010.7 |
| 20260507043515 | 70 | 182 | 0.0 | 6.0 | 0.00 | 0.01 | 0.00 | 72 | 1010.8 |
| 20260507043015 | 69 | 182 | 1.0 | 6.0 | 0.00 | 0.01 | 0.00 | 72 | 1010.7 |
| 20260507042514 | 69 | 212 | 1.0 | 9.0 | 0.00 | 0.01 | 0.00 | 73 | 1010.5 |
| 20260507042013 | 69 | 205 | 2.0 | 10.0 | 0.00 | 0.01 | 0.00 | 73 | 1010.2 |
| 20260507041512 | 69 | 227 | 4.0 | 10.0 | 0.00 | 0.01 | 0.00 | 73 | 1010.2 |
| 20260507041012 | 69 | 198 | 1.0 | 7.0 | 0.00 | 0.01 | 0.00 | 73 | 1010.5 |
| 20260507040511 | 69 | 209 | 1.0 | 7.0 | 0.00 | 0.01 | 0.00 | 73 | 1010.3 |
| 20260507040010 | 69 | 161 | 0.0 | 3.0 | 0.00 | 0.01 | 0.01 | 73 | 1010.5 |
| 20260507035510 | 69 | 159 | 0.0 | 3.0 | 0.00 | 0.01 | 0.01 | 73 | 1010.5 |
| 20260507035011 | 69 | 158 | 0.0 | 5.0 | 0.00 | 0.01 | 0.01 | 73 | 1010.6 |
| 20260507034511 | 68 | 175 | 0.0 | 3.0 | 0.00 | 0.01 | 0.01 | 73 | 1010.6 |
| 20260507034009 | 68 | 160 | 0.0 | 3.0 | 0.00 | 0.01 | 0.01 | 74 | 1010.7 |
| 20260507033511 | 68 | 163 | 0.0 | 6.0 | 0.00 | 0.01 | 0.01 | 74 | 1010.6 |
| 20260507033009 | 68 | 190 | 2.0 | 6.0 | 0.00 | 0.01 | 0.01 | 74 | 1010.6 |
| 20260507032508 | 68 | 209 | 1.0 | 7.0 | 0.00 | 0.01 | 0.01 | 74 | 1010.3 |
| 20260507032009 | 68 | 197 | 1.0 | 7.0 | 0.00 | 0.01 | 0.01 | 74 | 1010.2 |
| 20260507031508 | 68 | 192 | 2.0 | 7.0 | 0.00 | 0.01 | 0.01 | 74 | 1010.2 |
| 20260507031013 | 68 | 194 | 1.0 | 7.0 | 0.00 | 0.01 | 0.01 | 74 | 1010.1 |
| 20260507030508 | 68 | 178 | 0.0 | 6.0 | 0.00 | 0.01 | 0.01 | 74 | 1010.4 |
| 20260507030008 | 68 | 194 | 1.0 | 6.0 | 0.00 | 0.01 | 0.01 | 74 | 1010.5 |
| 20260507025506 | 68 | 164 | 0.0 | 2.0 | 0.00 | 0.01 | 0.01 | 73 | 1010.4 |
| 20260507025007 | 68 | 164 | 0.0 | 2.0 | 0.00 | 0.01 | 0.01 | 73 | 1010.2 |
| 20260507024506 | 68 | 163 | 0.0 | 2.0 | 0.00 | 0.01 | 0.01 | 73 | 1010.4 |
| 20260507024009 | 68 | 163 | 0.0 | 6.0 | 0.00 | 0.01 | 0.01 | 73 | 1010.5 |
| 20260507023506 | 68 | 163 | 1.0 | 6.0 | 0.00 | 0.01 | 0.01 | 73 | 1010.6 |
| 20260507023006 | 68 | 200 | 0.0 | 2.0 | 0.00 | 0.01 | 0.01 | 72 | 1010.7 |
| 20260507022507 | 68 | 200 | 0.0 | 4.0 | 0.00 | 0.01 | 0.01 | 72 | 1010.8 |
| 20260507022005 | 69 | 200 | 0.0 | 4.0 | 0.00 | 0.01 | 0.01 | 72 | 1010.6 |
| 20260507021506 | 69 | 200 | 1.0 | 2.0 | 0.00 | 0.01 | 0.01 | 71 | 1010.7 |
| 20260507021007 | 69 | 200 | 0.0 | 2.0 | 0.00 | 0.01 | 0.01 | 71 | 1010.7 |
| 20260507020506 | 69 | 200 | 0.0 | 4.0 | 0.00 | 0.01 | 0.01 | 71 | 1010.7 |
| 20260507020006 | 69 | 194 | 0.0 | 2.0 | 0.00 | 0.01 | 0.01 | 71 | 1010.6 |
| 20260507015504 | 69 | 194 | 0.0 | 3.0 | 0.00 | 0.01 | 0.01 | 71 | 1010.6 |
| 20260507015004 | 69 | 194 | 0.0 | 4.0 | 0.00 | 0.01 | 0.01 | 71 | 1010.6 |
| 20260507014504 | 69 | 192 | 0.0 | 4.0 | 0.00 | 0.01 | 0.01 | 71 | 1010.7 |
| 20260507014005 | 69 | 208 | 0.0 | 3.0 | 0.00 | 0.01 | 0.01 | 70 | 1010.7 |
| 20260507013504 | 70 | 208 | 1.0 | 3.0 | 0.00 | 0.01 | 0.01 | 70 | 1010.7 |
| 20260507013010 | 70 | 208 | 0.0 | 3.0 | 0.00 | 0.01 | 0.01 | 70 | 1010.7 |
| 20260507012504 | 70 | 208 | 0.0 | 4.0 | 0.00 | 0.01 | 0.01 | 70 | 1010.8 |
| 20260507012004 | 70 | 217 | 1.0 | 4.0 | 0.00 | 0.01 | 0.01 | 69 | 1010.7 |
| 20260507011505 | 70 | 217 | 0.0 | 3.0 | 0.00 | 0.01 | 0.01 | 69 | 1010.4 |
| 20260507011005 | 70 | 226 | 0.0 | 2.0 | 0.00 | 0.01 | 0.01 | 68 | 1010.6 |
| 20260507010503 | 71 | 227 | 0.0 | 2.0 | 0.00 | 0.01 | 0.01 | 68 | 1010.5 |
| 20260507010010 | 71 | 227 | 0.0 | 1.0 | 0.00 | 0.01 | 0.01 | 68 | 1010.6 |
| 20260507005503 | 71 | 227 | 0.0 | 3.0 | 0.00 | 0.01 | 0.01 | 68 | 1010.6 |
| 20260507005002 | 71 | 240 | 0.0 | 7.0 | 0.00 | 0.01 | 0.01 | 67 | 1010.6 |
| 20260507004502 | 71 | 204 | 1.0 | 7.0 | 0.00 | 0.01 | 0.01 | 67 | 1010.7 |
| 20260507004002 | 71 | 196 | 0.0 | 6.0 | 0.00 | 0.01 | 0.01 | 67 | 1010.6 |
| 20260507003502 | 71 | 201 | 3.0 | 6.0 | 0.00 | 0.01 | 0.01 | 67 | 1010.5 |
| 20260507003002 | 71 | 188 | 3.0 | 6.0 | 0.00 | 0.01 | 0.01 | 67 | 1010.6 |
| 20260507002502 | 71 | 202 | 2.0 | 6.0 | 0.00 | 0.01 | 0.01 | 66 | 1010.6 |
| 20260507002002 | 72 | 204 | 2.0 | 6.0 | 0.00 | 0.01 | 0.01 | 66 | 1010.6 |
| 20260507001501 | 72 | 209 | 3.0 | 7.0 | 0.00 | 0.01 | 0.01 | 66 | 1010.5 |
| 20260507001001 | 72 | 200 | 1.0 | 6.0 | 0.00 | 0.01 | 0.01 | 65 | 1010.4 |
| 20260507000501 | 72 | 208 | 2.0 | 6.0 | 0.00 | 0.01 | 0.01 | 65 | 1010.4 |
| 20260507000002 | 72 | 178 | 0.0 | 6.0 | 0.00 | 0.01 | 0.01 | 64 | 1010.3 |
| 20260506235501 | 72 | 203 | 1.0 | 8.0 | 0.00 | 0.01 | 0.01 | 64 | 1010.3 |
| 20260506235001 | 72 | 195 | 2.0 | 8.0 | 0.00 | 0.01 | 0.01 | 64 | 1010.2 |
| 20260506234608 | 73 | 201 | 1.0 | 6.0 | 0.00 | 0.01 | 0.01 | 64 | 1010.3 |
| 20260506234102 | 73 | 191 | 2.0 | 6.0 | 0.00 | 0.01 | 0.01 | 64 | 1010.4 |
| 20260506233601 | 73 | 248 | 2.0 | 10.0 | 0.00 | 0.01 | 0.01 | 63 | 1010.4 |
| 20260506233109 | 73 | 200 | 1.0 | 10.0 | 0.00 | 0.01 | 0.01 | 63 | 1010.3 |
| 20260506232559 | 73 | 180 | 1.0 | 7.0 | 0.00 | 0.01 | 0.01 | 63 | 1010.3 |
| 20260506232100 | 73 | 215 | 2.0 | 7.0 | 0.00 | 0.01 | 0.01 | 63 | 1010.3 |
| 20260506231600 | 73 | 189 | 2.0 | 7.0 | 0.00 | 0.01 | 0.01 | 63 | 1010.1 |
| 20260506231100 | 73 | 191 | 1.0 | 7.0 | 0.00 | 0.01 | 0.01 | 63 | 1010.0 |
| 20260506230559 | 73 | 195 | 1.0 | 7.0 | 0.00 | 0.01 | 0.01 | 63 | 1010.1 |
| 20260506230059 | 73 | 197 | 1.0 | 7.0 | 0.00 | 0.01 | 0.01 | 63 | 1010.0 |
| 20260506225601 | 74 | 204 | 3.0 | 8.0 | 0.00 | 0.01 | 0.01 | 62 | 1010.0 |
| 20260506225059 | 74 | 207 | 1.0 | 8.0 | 0.00 | 0.01 | 0.01 | 62 | 1010.0 |
| 20260506224613 | 74 | 196 | 2.0 | 7.0 | 0.00 | 0.01 | 0.01 | 62 | 1010.0 |
| 20260506224057 | 74 | 203 | 0.0 | 7.0 | 0.00 | 0.01 | 0.01 | 62 | 1010.0 |
| 20260506223557 | 74 | 223 | 2.0 | 6.0 | 0.00 | 0.01 | 0.01 | 62 | 1010.0 |
| 20260506223059 | 74 | 176 | 1.0 | 6.0 | 0.00 | 0.01 | 0.01 | 62 | 1010.0 |
| 20260506222557 | 74 | 194 | 1.0 | 6.0 | 0.00 | 0.01 | 0.01 | 62 | 1010.0 |
| 20260506222058 | 74 | 202 | 1.0 | 7.0 | 0.00 | 0.01 | 0.01 | 62 | 1010.0 |
| 20260506221555 | 74 | 195 | 3.0 | 8.0 | 0.00 | 0.01 | 0.01 | 62 | 1010.1 |
| 20260506221053 | 74 | 188 | 2.0 | 8.0 | 0.00 | 0.01 | 0.01 | 62 | 1010.1 |
| 20260506220552 | 74 | 208 | 1.0 | 6.0 | 0.00 | 0.01 | 0.01 | 62 | 1010.2 |
| 20260506220104 | 74 | 196 | 3.0 | 6.0 | 0.00 | 0.01 | 0.01 | 62 | 1010.2 |
| 20260506215551 | 74 | 230 | 0.0 | 6.0 | 0.00 | 0.01 | 0.01 | 63 | 1010.4 |
| 20260506215051 | 74 | 184 | 0.0 | 6.0 | 0.00 | 0.01 | 0.01 | 63 | 1010.3 |
| 20260506214550 | 74 | 228 | 0.0 | 4.0 | 0.00 | 0.01 | 0.01 | 63 | 1010.2 |
| 20260506214050 | 74 | 250 | 1.0 | 4.0 | 0.00 | 0.01 | 0.01 | 63 | 1010.2 |
| 20260506213552 | 74 | 209 | 1.0 | 9.0 | 0.00 | 0.01 | 0.01 | 62 | 1010.1 |
| 20260506213050 | 74 | 240 | 2.0 | 9.0 | 0.00 | 0.01 | 0.01 | 62 | 1010.0 |
| 20260506212550 | 74 | 183 | 3.0 | 8.0 | 0.00 | 0.01 | 0.01 | 61 | 1010.0 |
| 20260506212050 | 74 | 191 | 1.0 | 8.0 | 0.00 | 0.01 | 0.01 | 62 | 1010.1 |
| 20260506211554 | 74 | 280 | 2.0 | 14.0 | 0.00 | 0.01 | 0.01 | 62 | 1010.2 |
| 20260506211046 | 74 | 231 | 2.0 | 14.0 | 0.00 | 0.01 | 0.01 | 62 | 1010.2 |
| 20260506210545 | 74 | 227 | 0.0 | 6.0 | 0.00 | 0.01 | 0.01 | 62 | 1010.2 |
| 20260506210044 | 74 | 257 | 2.0 | 6.0 | 0.00 | 0.01 | 0.01 | 61 | 1010.2 |
| 20260506205541 | 74 | 219 | 0.0 | 9.0 | 0.00 | 0.01 | 0.01 | 62 | 1010.1 |
| 20260506205040 | 74 | 211 | 1.0 | 5.0 | 0.00 | 0.01 | 0.01 | 62 | 1010.1 |
| 20260506204540 | 74 | 166 | 1.0 | 14.0 | 0.00 | 0.01 | 0.01 | 61 | 1010.0 |
| 20260506204038 | 74 | 207 | 4.0 | 14.0 | 0.00 | 0.01 | 0.01 | 61 | 1009.8 |
| 20260506203638 | 74 | 215 | 5.0 | 16.0 | 0.00 | 0.01 | 0.01 | 60 | 1009.8 |
| 20260506203034 | 74 | 227 | 7.0 | 16.0 | 0.00 | 0.01 | 0.01 | 60 | 1009.8 |
| 20260506202534 | 74 | 238 | 5.0 | 13.0 | 0.00 | 0.01 | 0.01 | 60 | 1009.8 |
| 20260506202033 | 74 | 227 | 1.0 | 9.0 | 0.00 | 0.01 | 0.01 | 61 | 1009.5 |
| 20260506201533 | 74 | 209 | 3.0 | 10.0 | 0.00 | 0.01 | 0.01 | 60 | 1009.5 |
| 20260506201032 | 74 | 254 | 5.0 | 10.0 | 0.00 | 0.01 | 0.01 | 61 | 1009.6 |
| 20260506200533 | 74 | 202 | 3.0 | 14.0 | 0.00 | 0.01 | 0.01 | 61 | 1009.7 |
| 20260506200128 | 73 | 230 | 4.0 | 14.0 | 0.00 | 0.01 | 0.01 | 61 | 1009.8 |
| 20260506195530 | 73 | 200 | 2.0 | 11.0 | 0.00 | 0.01 | 0.01 | 62 | 1010.0 |
| 20260506195025 | 73 | 195 | 2.0 | 11.0 | 0.00 | 0.01 | 0.01 | 61 | 1010.1 |
| 20260506194532 | 73 | 234 | 4.0 | 10.0 | 0.00 | 0.01 | 0.01 | 62 | 1009.9 |
| 20260506194025 | 73 | 221 | 4.0 | 16.0 | 0.00 | 0.01 | 0.01 | 61 | 1010.1 |
| 20260506193523 | 73 | 226 | 8.0 | 18.0 | 0.00 | 0.01 | 0.01 | 61 | 1010.1 |
| 20260506193021 | 72 | 198 | 6.0 | 18.0 | 0.00 | 0.01 | 0.01 | 62 | 1010.2 |
| 20260506192519 | 72 | 202 | 4.0 | 12.0 | 0.00 | 0.01 | 0.01 | 63 | 1010.3 |
| 20260506192019 | 72 | 179 | 4.0 | 12.0 | 0.00 | 0.01 | 0.01 | 63 | 1010.6 |
| 20260506191518 | 72 | 192 | 5.0 | 13.0 | 0.01 | 0.01 | 0.01 | 63 | 1010.8 |
| 20260506191017 | 72 | 209 | 6.0 | 13.0 | 0.01 | 0.01 | 0.01 | 63 | 1011.0 |
| 20260506190516 | 71 | 195 | 2.0 | 10.0 | 0.01 | 0.01 | 0.01 | 65 | 1011.2 |
| 20260506190014 | 71 | 193 | 2.0 | 6.0 | 0.01 | 0.01 | 0.01 | 66 | 1011.3 |
| 20260506185513 | 71 | 206 | 1.0 | 7.0 | 0.01 | 0.01 | 0.01 | 68 | 1011.3 |
| 20260506185012 | 71 | 184 | 2.0 | 9.0 | 0.01 | 0.01 | 0.01 | 66 | 1011.4 |
| 20260506184512 | 71 | 194 | 2.0 | 7.0 | 0.01 | 0.01 | 0.01 | 67 | 1011.5 |
| 20260506184013 | 71 | 182 | 0.0 | 7.0 | 0.01 | 0.01 | 0.01 | 67 | 1011.6 |
| 20260506183512 | 71 | 194 | 0.0 | 7.0 | 0.01 | 0.01 | 0.01 | 67 | 1011.9 |
| 20260506183012 | 71 | 170 | 1.0 | 7.0 | 0.01 | 0.01 | 0.01 | 65 | 1011.8 |
| 20260506182511 | 71 | 188 | 1.0 | 9.0 | 0.01 | 0.01 | 0.01 | 65 | 1011.9 |
| 20260506182014 | 72 | 284 | 1.0 | 8.0 | 0.01 | 0.01 | 0.01 | 64 | 1011.9 |
| 20260506181511 | 72 | 213 | 1.0 | 11.0 | 0.00 | 0.00 | 0.00 | 64 | 1011.9 |
| 20260506181011 | 72 | 170 | 2.0 | 11.0 | 0.00 | 0.00 | 0.00 | 62 | 1011.9 |
| 20260506180513 | 72 | 229 | 2.0 | 11.0 | 0.00 | 0.00 | 0.00 | 62 | 1012.1 |
| 20260506180010 | 72 | 215 | 3.0 | 11.0 | 0.00 | 0.00 | 0.00 | 63 | 1011.9 |
| 20260506175509 | 72 | 198 | 1.0 | 11.0 | 0.00 | 0.00 | 0.00 | 64 | 1011.8 |
| 20260506175009 | 72 | 221 | 6.0 | 12.0 | 0.00 | 0.00 | 0.00 | 63 | 1011.7 |
| 20260506174507 | 71 | 194 | 4.0 | 12.0 | 0.00 | 0.00 | 0.00 | 63 | 1011.7 |
| 20260506174006 | 71 | 215 | 6.0 | 15.0 | 0.00 | 0.00 | 0.00 | 63 | 1011.7 |
| 20260506173505 | 71 | 218 | 7.0 | 15.0 | 0.00 | 0.00 | 0.00 | 65 | 1011.7 |
| 20260506173004 | 70 | 216 | 3.0 | 9.0 | 0.00 | 0.00 | 0.00 | 66 | 1011.8 |
| 20260506172502 | 70 | 273 | 1.0 | 14.0 | 0.00 | 0.00 | 0.00 | 66 | 1011.7 |
| 20260506172002 | 70 | 188 | 8.0 | 14.0 | 0.00 | 0.00 | 0.00 | 65 | 1011.8 |
| 20260506171501 | 69 | 232 | 6.0 | 18.0 | 0.00 | 0.00 | 0.00 | 66 | 1011.7 |
| 20260506171001 | 69 | 212 | 7.0 | 18.0 | 0.00 | 0.00 | 0.00 | 66 | 1011.6 |
| 20260506170600 | 69 | 216 | 6.0 | 14.0 | 0.00 | 0.00 | 0.00 | 67 | 1011.7 |
| 20260506170109 | 68 | 221 | 4.0 | 15.0 | 0.00 | 0.00 | 0.00 | 68 | 1011.9 |
| 20260506165600 | 68 | 206 | 5.0 | 12.0 | 0.00 | 0.00 | 0.00 | 69 | 1012.1 |
| 20260506165058 | 68 | 221 | 5.0 | 12.0 | 0.00 | 0.00 | 0.00 | 68 | 1012.4 |
| 20260506164558 | 68 | 212 | 4.0 | 11.0 | 0.00 | 0.00 | 0.00 | 69 | 1012.4 |
| 20260506164058 | 68 | 216 | 5.0 | 11.0 | 0.00 | 0.00 | 0.00 | 70 | 1012.4 |
| 20260506163557 | 67 | 218 | 2.0 | 8.0 | 0.00 | 0.00 | 0.00 | 72 | 1012.5 |
| 20260506163057 | 67 | 198 | 3.0 | 7.0 | 0.00 | 0.00 | 0.00 | 71 | 1012.5 |
| 20260506162555 | 67 | 199 | 3.0 | 6.0 | 0.00 | 0.00 | 0.00 | 72 | 1012.7 |
| 20260506162055 | 67 | 186 | 2.0 | 8.0 | 0.00 | 0.00 | 0.00 | 72 | 1012.7 |
| 20260506161555 | 67 | 184 | 3.0 | 9.0 | 0.00 | 0.00 | 0.00 | 72 | 1013.0 |
| 20260506161054 | 67 | 217 | 1.0 | 9.0 | 0.00 | 0.00 | 0.00 | 72 | 1012.8 |
| 20260506160554 | 67 | 211 | 2.0 | 5.0 | 0.00 | 0.00 | 0.00 | 73 | 1012.9 |
| 20260506160108 | 67 | 203 | 0.0 | 7.0 | 0.00 | 0.00 | 0.00 | 73 | 1013.1 |
| 20260506155553 | 67 | 212 | 3.0 | 9.0 | 0.00 | 0.00 | 0.00 | 72 | 1013.1 |
| 20260506155054 | 67 | 238 | 4.0 | 9.0 | 0.00 | 0.00 | 0.00 | 73 | 1013.2 |
| 20260506154552 | 67 | 194 | 2.0 | 5.0 | 0.00 | 0.00 | 0.00 | 72 | 1013.3 |
| 20260506154054 | 67 | 200 | 0.0 | 6.0 | 0.00 | 0.00 | 0.00 | 72 | 1013.4 |
| 20260506153552 | 67 | 187 | 2.0 | 8.0 | 0.00 | 0.00 | 0.00 | 71 | 1013.4 |
| 20260506153053 | 67 | 203 | 2.0 | 8.0 | 0.00 | 0.00 | 0.00 | 70 | 1013.5 |
| 20260506152551 | 68 | 249 | 1.0 | 6.0 | 0.00 | 0.00 | 0.00 | 70 | 1013.6 |
| 20260506152052 | 68 | 230 | 1.0 | 7.0 | 0.00 | 0.00 | 0.00 | 70 | 1013.5 |
| 20260506151552 | 68 | 198 | 1.0 | 9.0 | 0.00 | 0.00 | 0.00 | 69 | 1013.6 |
| 20260506151051 | 68 | 216 | 3.0 | 9.0 | 0.00 | 0.00 | 0.00 | 68 | 1013.5 |
| 20260506150553 | 68 | 242 | 2.0 | 10.0 | 0.00 | 0.00 | 0.00 | 68 | 1013.6 |
| 20260506150052 | 68 | 248 | 4.0 | 10.0 | 0.00 | 0.00 | 0.00 | 66 | 1013.6 |
| 20260506145551 | 69 | 200 | 4.0 | 10.0 | 0.00 | 0.00 | 0.00 | 65 | 1013.5 |
| 20260506145050 | 69 | 225 | 5.0 | 13.0 | 0.00 | 0.00 | 0.00 | 65 | 1013.7 |
| 20260506144551 | 69 | 215 | 6.0 | 13.0 | 0.00 | 0.00 | 0.00 | 65 | 1014.0 |
| 20260506144048 | 69 | 204 | 4.0 | 8.0 | 0.00 | 0.00 | 0.00 | 65 | 1013.8 |
| 20260506143547 | 69 | 184 | 3.0 | 9.0 | 0.00 | 0.00 | 0.00 | 66 | 1013.6 |
| 20260506143047 | 68 | 202 | 2.0 | 12.0 | 0.00 | 0.00 | 0.00 | 66 | 1013.4 |
| 20260506142545 | 68 | 232 | 4.0 | 11.0 | 0.00 | 0.00 | 0.00 | 66 | 1013.2 |
| 20260506142047 | 68 | 219 | 4.0 | 11.0 | 0.00 | 0.00 | 0.00 | 67 | 1013.2 |
| 20260506141544 | 67 | 226 | 6.0 | 10.0 | 0.00 | 0.00 | 0.00 | 67 | 1013.2 |
| 20260506141044 | 67 | 209 | 5.0 | 10.0 | 0.00 | 0.00 | 0.00 | 67 | 1013.3 |
| 20260506140547 | 67 | 240 | 5.0 | 10.0 | 0.00 | 0.00 | 0.00 | 67 | 1013.3 |
| 20260506140044 | 67 | 200 | 2.0 | 11.0 | 0.00 | 0.00 | 0.00 | 67 | 1013.3 |
| 20260506135543 | 67 | 192 | 2.0 | 7.0 | 0.00 | 0.00 | 0.00 | 67 | 1013.5 |
| 20260506135043 | 67 | 205 | 1.0 | 10.0 | 0.00 | 0.00 | 0.00 | 67 | 1013.4 |
| 20260506134546 | 67 | 234 | 3.0 | 10.0 | 0.00 | 0.00 | 0.00 | 67 | 1013.2 |
| 20260506134044 | 67 | 198 | 3.0 | 10.0 | 0.00 | 0.00 | 0.00 | 67 | 1013.1 |
| 20260506133542 | 67 | 217 | 5.0 | 10.0 | 0.00 | 0.00 | 0.00 | 66 | 1013.3 |
| 20260506133042 | 68 | 199 | 4.0 | 10.0 | 0.00 | 0.00 | 0.00 | 65 | 1013.2 |
| 20260506132542 | 68 | 211 | 3.0 | 16.0 | 0.00 | 0.00 | 0.00 | 65 | 1013.5 |
| 20260506132044 | 68 | 239 | 7.0 | 16.0 | 0.00 | 0.00 | 0.00 | 64 | 1013.2 |
| 20260506131556 | 68 | 212 | 6.0 | 13.0 | 0.00 | 0.00 | 0.00 | 65 | 1013.2 |
| 20260506131041 | 68 | 197 | 4.0 | 13.0 | 0.00 | 0.00 | 0.00 | 65 | 1013.1 |